SCP
0 0 0 0 0 0 0 0 0 0 0 0 0 0 0 0 0 0 0 0 0 0
0 0 0 0 0 0 0 0 0 0 0 0 0 0 0 0 0 0 0 0 0 0
0 0 0 0 0 0 0 0 0 0 0 0 0 0 0 0 0 0 0 0 0 0
0 0 0 0 0 0 0 0 0 0 0 0 0 0 0 0 0 0 0 0 0 0
0 0 0 0 0 0 0 0 0 0 0 0 0 0 0 0 0 0 0 0 0 0
0 0 0 0 0 0 0 0 0 0 0 0 0 0 0 0 0 0 0 0 0 0
0 0 0 0 0 0 0 0 0 0 0 0 0 0 0 0 0 0 0 0 0 0
0 0 0 0 0 0 0 0 0 0 0 0 0 0 0 0 0 0 0 0 0 0
0 0 0 0 0 0 0 0 0 0 0 0 0 0 0 0 0 0 0 0 0 0
0 0 0 0 0 0 0 0 0 0 0 0 0 0 0 0 0 0 0 0 0 0
0 0 0 0 0 0 0 0 0 0 0 0 0 0 0 0 0 0 0 0 0 0
0 0 0 0 0 0 0 0 0 0 0 0 0 0 0 0 0 0 0 0 0 0
0 0 0 0 0 0 0 0 0 0 0 0 0 0 0 0 0 0 0 0 0 0
0 0 0 0 0 0 0 0 0 0 0 0 0 0 0 0 0 0 0 0 0 0
Wind_Speed_500mb
17 19 21 21 22 22 21 21 21 19 18 18 20 22 23 24 24 22 21 19 17 15
21 21 22 24 24 23 22 22 20 18 16 17 20 23 24 23 21 19 16 14 12 11
25 26 27 26 25 24 22 21 20 18 19 20 21 22 22 20 17 14 12 11 11 11
29 30 28 27 27 25 23 21 20 19 18 18 19 18 18 17 16 14 12 12 11 12
32 32 30 29 28 27 25 23 21 18 17 17 15 16 16 17 16 14 12 12 13 14
34 34 32 31 30 28 25 22 19 17 16 16 15 15 15 15 14 14 12 13 15 17
35 34 34 32 30 27 24 21 19 17 15 15 14 14 13 11 11 13 14 15 18 20
36 35 34 32 30 27 24 21 19 16 14 11 12 14 14 11 11 14 15 15 17 20
35 33 32 30 28 26 23 22 19 16 13 10 12 9 10 9 10 13 14 15 17 21
34 32 31 29 28 26 23 20 18 15 9 11 13 9 9 9 11 11 12 15 19 22
35 34 33 31 28 26 23 21 18 20 14 13 14 11 10 11 11 14 16 17 19 22
36 35 33 32 29 26 25 29 21 17 20 18 12 13 12 11 12 14 18 17 19 21
34 32 31 29 29 30 27 22 17 18 21 18 13 11 14 11 11 12 15 16 18 21
32 31 32 32 32 28 26 20 18 18 16 15 13 12 15 14 13 12 13 17 19 23
Wind_Direction_500mb
252 251 256 259 257 255 255 258 262 266 275 285 291 293 291 286 281 276 272 270 265 266
274 266 256 251 252 253 256 260 265 269 278 287 291 290 286 282 274 267 264 262 267 280
268 266 265 265 262 262 264 266 269 275 284 290 293 290 285 278 272 264 258 254 265 278
271 270 266 265 265 265 265 265 269 278 285 288 287 284 278 269 258 249 249 259 277 294
272 271 269 268 265 264 263 265 269 273 278 281 281 275 265 260 252 249 254 271 289 305
274 272 269 266 263 262 262 262 262 264 268 267 269 264 254 252 257 266 278 293 304 312
273 271 268 266 263 260 258 256 256 254 255 262 265 258 248 252 272 284 296 304 312 319
269 267 264 261 258 255 252 249 246 251 260 269 265 260 250 262 285 299 304 311 324 324
265 263 259 254 251 249 244 239 237 228 229 252 272 258 263 277 297 302 309 313 326 330
258 255 251 246 243 240 237 233 222 216 228 262 285 303 300 310 310 303 315 323 323 324
252 249 245 242 238 234 227 214 206 245 242 250 289 296 311 319 317 314 313 316 318 321
247 245 242 236 230 224 222 239 226 219 249 247 265 291 306 302 308 309 313 316 317 320
247 245 240 231 222 230 228 222 207 210 222 237 255 291 310 310 309 312 312 317 325 328
240 233 229 230 227 213 207 211 212 216 229 241 250 279 297 316 317 322 323 324 325 327
Wind_Speed_850mb
17 19 21 21 22 22 21 21 21 19 18 18 20 22 23 24 24 22 21 19 17 15
21 21 22 24 24 23 22 22 20 18 16 17 20 23 24 23 21 19 16 14 12 11
25 26 27 26 25 24 22 21 20 18 19 20 21 22 22 20 17 14 12 11 11 11
29 30 28 27 27 25 23 21 20 19 18 18 19 18 18 17 16 14 12 12 11 12
32 32 30 29 28 27 25 23 21 18 17 17 15 16 16 17 16 14 12 12 13 14
34 34 32 31 30 28 25 22 19 17 16 16 15 15 15 15 14 14 12 13 15 17
35 34 34 32 30 27 24 21 19 17 15 15 14 14 13 11 11 13 14 15 18 20
36 35 34 32 30 27 24 21 19 16 14 11 12 14 14 11 11 14 15 15 17 20
35 33 32 30 28 26 23 22 19 16 13 10 12 9 10 9 10 13 14 15 17 21
34 32 31 29 28 26 23 20 18 15 9 11 13 9 9 9 11 11 12 15 19 22
35 34 33 31 28 26 23 21 18 20 14 13 14 11 10 11 11 14 16 17 19 22
36 35 33 32 29 26 25 29 21 17 20 18 12 13 12 11 12 14 18 17 19 21
34 32 31 29 29 30 27 22 17 18 21 18 13 11 14 11 11 12 15 16 18 21
32 31 32 32 32 28 26 20 18 18 16 15 13 12 15 14 13 12 13 17 19 23
Wind_Direction_850mb
252 251 256 259 257 255 255 258 262 266 275 285 291 293 291 286 281 276 272 270 265 266
274 266 256 251 252 253 256 260 265 269 278 287 291 290 286 282 274 267 264 262 267 280
268 266 265 265 262 262 264 266 269 275 284 290 293 290 285 278 272 264 258 254 265 278
271 270 266 265 265 265 265 265 269 278 285 288 287 284 278 269 258 249 249 259 277 294
272 271 269 268 265 264 263 265 269 273 278 281 281 275 265 260 252 249 254 271 289 305
274 272 269 266 263 262 262 262 262 264 268 267 269 264 254 252 257 266 278 293 304 312
273 271 268 266 263 260 258 256 256 254 255 262 265 258 248 252 272 284 296 304 312 319
269 267 264 261 258 255 252 249 246 251 260 269 265 260 250 262 285 299 304 311 324 324
265 263 259 254 251 249 244 239 237 228 229 252 272 258 263 277 297 302 309 313 326 330
258 255 251 246 243 240 237 233 222 216 228 262 285 303 300 310 310 303 315 323 323 324
252 249 245 242 238 234 227 214 206 245 242 250 289 296 311 319 317 314 313 316 318 321
247 245 242 236 230 224 222 239 226 219 249 247 265 291 306 302 308 309 313 316 317 320
247 245 240 231 222 230 228 222 207 210 222 237 255 291 310 310 309 312 312 317 325 328
240 233 229 230 227 213 207 211 212 216 229 241 250 279 297 316 317 322 323 324 325 327